Content
SEND FEEDBACK

Daily
Averages
Monthly
Summary
United States of America

BIG TIMBER, MONTANA


Home > North America > United States > Montana
Elevation: 4482 feet     Latitude: 45 48N     Longitude: 109 58W

WEATHER
 
SELECT A DAY
Number of Records: 177,467;   Date Range: 1/1/95 - 8/12/14
 
SHARE

PRINT THIS DATA

[ ← Previous Day ]
WEATHER ALMANAC - JUNE 7, 2014
[ Next Day → ]
[ °C ]   °F
Weather ElementAverageHighLow
Temperature53.7 °F72 °F (4:53 pm)42.1 °F (1:53 am)
Dewpoint38.7 °F42.1 °F (11:53 am)34 °F (5:53 pm)
Humidity61.9 %89 % (1:53 am)27 % (4:53 pm)
Barometer30.07 in30.15 in (2:24 am)29.94 in (4:53 pm)
Wind Speed5.9 mph15 mph (6:53 pm)
Wind Gust33.4 mph (6:53 pm)
Weather ElementAverage
Visibility10 mi
Wind DirectionENE (70 °)

Weather ElementTotal
Precipitation---
Heating Degree Days8 (Base 65)
Growing Degree Days7.1 (Base 50)
Averaged from 31 records on June 7, 2014
WEATHER CONDITIONS BREAKOUT
WIND DIRECTION BREAKOUT
WEATHER BY HOUR - JUNE 7, 2014
[ °C ]   °F
Local TimeTemperatureDewpointHumidityBarometerVisibilityWind DirectionWind SpeedGust SpeedPrecipitationEventsConditions
1:53 AM42.1 °F39.0 °F89 %30.12 in10.0 miESE (110°)9.2 mphPartly Cloudy
2:06 AM42.1 °F39.0 °F89 %30.14 in10.0 miESE (110°)8.1 mphMostly Cloudy
2:24 AM43.0 °F39.9 °F89 %30.15 in10.0 miESE (110°)6.9 mphOvercast
2:53 AM44.1 °F39.9 °F85 %30.12 in10.0 miSE (130°)8.1 mphOvercast
3:20 AM44.1 °F39.9 °F85 %30.15 in10.0 miESE (110°)5.8 mphOvercast
3:53 AM44.1 °F39.9 °F85 %30.12 in10.0 miEast (100°)6.9 mphOvercast
4:21 AM43.0 °F39.9 °F89 %30.15 in10.0 miEast (100°)8.1 mphOvercast
4:53 AM43.0 °F39.0 °F86 %30.12 in10.0 miEast (80°)8.1 mphOvercast
5:34 AM43.0 °F39.0 °F86 %30.15 in10.0 miCalmOvercast
6:01 AM43.0 °F39.0 °F86 %30.15 in10.0 miCalmOvercast
6:16 AM43.0 °F39.0 °F86 %30.14 in10.0 miCalmOvercast
6:53 AM44.1 °F39.0 °F82 %30.11 in10.0 miCalmOvercast
7:53 AM46.0 °F37.9 °F73 %30.11 in10.0 miCalmOvercast
9:03 AM48.9 °F39.0 °F69 %30.13 in10.0 miWNW (290°)4.6 mphMostly Cloudy
9:33 AM52.0 °F41.0 °F66 %30.12 in10.0 miCalmScattered Clouds
9:53 AM52.0 °F39.9 °F63 %30.09 in10.0 miCalmPartly Cloudy
10:53 AM55.0 °F41.0 °F59 %30.06 in10.0 miVariable3.5 mphClear
11:53 AM60.1 °F42.1 °F51 %30.04 in10.0 miCalmClear
12:53 PM63.0 °F41.0 °F45 %30.01 in10.0 miVariable4.6 mphClear
1:53 PM66.0 °F41.0 °F40 %29.99 in10.0 miESE (110°)4.6 mphClear
2:53 PM69.1 °F37.0 °F31 %29.96 in10.0 miVariable4.6 mphClear
3:53 PM70.0 °F35.1 °F28 %29.95 in10.0 miVariable5.8 mphClear
4:53 PM72.0 °F36.0 °F27 %29.94 in10.0 miNorth (10°)11.5 mphPartly Cloudy
5:53 PM66.9 °F34.0 °F30 %29.96 in10.0 miNorth (10°)9.2 mphMostly Cloudy
6:24 PM64.9 °F35.1 °F33 %30.03 in10.0 miNNW (340°)11.5 mph21.9 mphMostly Cloudy
6:53 PM63.0 °F35.1 °F35 %29.99 in10.0 miNorth (10°)15.0 mph33.4 mphOvercast
7:53 PM63.0 °F37.9 °F40 %29.99 in10.0 miSSE (150°)9.2 mphOvercast
8:53 PM61.0 °F39.0 °F44 %30.00 in10.0 miEast (100°)9.2 mphOvercast
9:53 PM59.0 °F39.9 °F49 %30.02 in10.0 miESE (110°)10.4 mphOvercast
10:53 PM57.9 °F37.9 °F47 %30.04 in10.0 miENE (60°)5.8 mphOvercast
11:53 PM55.0 °F37.9 °F53 %30.04 in10.0 miSE (130°)11.5 mph0.00 inRainLight Rain
Hourly data recorded from KLVM, located miles away from Big Timber, Montana







STORIES FROM OUR PARTNERS